Belmar-Farmingdale, NJ

10:49 AM EDT on July 21, 2017 (GMT -0400)
Allaire

Weather History for KBLM - February, 2013

Change the Weather History Date:

Tuesday, February 5, 2013

  Actual Average Record
Temperature  
Mean Temperature 30 °F -  
Max Temperature 33 °F 38 °F 57 °F (2008)
Min Temperature 26 °F 25 °F 8 °F (2007)
Degree Days  
Heating Degree Days 36    
Moisture  
Dew Point 26 °F    
Average Humidity 84    
Maximum Humidity 100    
Minimum Humidity 52    
Precipitation  
Precipitation 0.00 in - - ()
Sea Level Pressure  
Sea Level Pressure 29.92 in    
Wind  
Wind Speed 3 mph (NNE)    
Max Wind Speed 9 mph    
Max Gust Speed -    
Visibility 6 miles    
Events      
Averages and records for this station are not official NWS values.
T = Trace of Precipitation, MM = Missing Value Source: NWS Daily Summary

Daily Weather History Graph

Daily Weather History Graph

Search for Another Location

Airport or City:

Trip Planner

Search our weather history database for the weather conditions in past years. The results will help you decide how hot, cold, wet, or windy it might be!

Date:

Astronomy

Feb. 05, 2013 Rise Set
Actual Time 7:01 AM EST 5:20 PM EST
Civil Twilight 6:32 AM EST 5:48 PM EST
Nautical Twilight 6:00 AM EST 6:21 PM EST
Astronomical Twilight 5:28 AM EST 6:52 PM EST
Moon 2:40 AM EST (2/5) 12:35 PM EST (2/5)
Length of Visible Light 11h 16m
Length of Day
10h 19m
Waning Crescent, 27% of the Moon is Illuminated
Feb 5
Waning Crescent
Feb 10
New
Feb 17
First Quarter
Feb 25
Full
Mar 4
Last Quarter

Hourly Weather History & Observations

Time (EST) Temp. Windchill Dew Point Humidity Pressure Visibility Wind Dir Wind Speed Gust Speed Precip Events Conditions
12:15 AM 26.6 °F - 21.2 °F 80% 29.96 in 3.0 mi Calm Calm - N/A   Overcast
12:35 AM 26.6 °F 22.6 °F 21.2 °F 80% 29.96 in 4.0 mi South 3.5 mph - N/A   Overcast
12:55 AM 26.6 °F 22.6 °F 23.0 °F 86% 29.95 in 3.0 mi South 3.5 mph - N/A   Overcast
1:15 AM 26.6 °F 22.6 °F 24.8 °F 93% 29.95 in 5.0 mi SSE 3.5 mph - N/A   Overcast
1:35 AM 26.6 °F 22.6 °F 24.8 °F 93% 29.94 in 8.0 mi SSE 3.5 mph - N/A   Overcast
1:55 AM 26.6 °F 22.6 °F 24.8 °F 93% 29.94 in 8.0 mi South 3.5 mph - N/A   Overcast
2:15 AM 26.6 °F 22.6 °F 24.8 °F 93% 29.93 in 8.0 mi SSE 3.5 mph - N/A   Overcast
2:35 AM 26.6 °F - 24.8 °F 93% 29.93 in 9.0 mi Calm Calm - N/A   Overcast
2:55 AM 26.6 °F - 24.8 °F 93% 29.92 in 10.0 mi Calm Calm - N/A   Overcast
3:15 AM 26.6 °F - 24.8 °F 93% 29.92 in 10.0 mi Calm Calm - N/A   Overcast
3:35 AM 28.4 °F - 24.8 °F 86% 29.92 in 10.0 mi Calm Calm - N/A   Overcast
3:55 AM 28.4 °F - 24.8 °F 86% 29.91 in 9.0 mi Calm Calm - N/A   Overcast
4:15 AM 28.4 °F - 24.8 °F 86% 29.90 in 8.0 mi Calm Calm - N/A   Overcast
4:35 AM 28.4 °F - 24.8 °F 86% 29.89 in 9.0 mi Calm Calm - N/A   Overcast
4:55 AM 28.4 °F - 26.6 °F 93% 29.90 in 9.0 mi Calm Calm - N/A   Overcast
5:15 AM 28.4 °F 23.3 °F 26.6 °F 93% 29.90 in 8.0 mi ENE 4.6 mph - N/A   Overcast
5:35 AM 28.4 °F 24.6 °F 26.6 °F 93% 29.91 in 9.0 mi NNW 3.5 mph - N/A   Overcast
5:55 AM 28.4 °F 24.6 °F 26.6 °F 93% 29.91 in 8.0 mi NNW 3.5 mph - N/A   Overcast
6:15 AM 28.4 °F 24.6 °F 26.6 °F 93% 29.91 in 8.0 mi NNW 3.5 mph - N/A   Overcast
6:35 AM 28.4 °F - 26.6 °F 93% 29.91 in 8.0 mi Calm Calm - N/A   Overcast
6:55 AM 28.4 °F 23.3 °F 26.6 °F 93% 29.91 in 8.0 mi North 4.6 mph - N/A   Overcast
7:15 AM 28.4 °F 23.3 °F 26.6 °F 93% 29.91 in 6.0 mi North 4.6 mph - N/A   Overcast
7:35 AM 28.4 °F 22.2 °F 26.6 °F 93% 29.92 in 5.0 mi North 5.8 mph - N/A   Overcast
7:55 AM 28.4 °F 21.2 °F 26.6 °F 93% 29.93 in 5.0 mi North 6.9 mph - N/A   Overcast
8:15 AM 30.2 °F 23.4 °F 26.6 °F 86% 29.94 in 7.0 mi North 6.9 mph - N/A   Overcast
8:35 AM 30.2 °F 24.3 °F 26.6 °F 86% 29.94 in 7.0 mi North 5.8 mph - N/A   Overcast
8:55 AM 30.2 °F 25.4 °F 26.6 °F 86% 29.94 in 7.0 mi North 4.6 mph - N/A   Overcast
9:15 AM 30.2 °F 23.4 °F 26.6 °F 86% 29.94 in 8.0 mi North 6.9 mph - N/A   Overcast
9:55 AM 30.2 °F 22.6 °F 28.4 °F 93% 29.94 in 8.0 mi NNE 8.1 mph - N/A   Unknown
10:15 AM 32.0 °F 26.4 °F 28.4 °F 87% 29.95 in 7.0 mi NNE 5.8 mph - N/A   Overcast
10:35 AM 32.0 °F 26.4 °F 19.4 °F 60% 29.95 in 5.0 mi NNE 5.8 mph - N/A   Overcast
10:55 AM 32.0 °F 26.4 °F 19.4 °F 60% 29.96 in 5.0 mi NNE 5.8 mph - N/A   Overcast
11:15 AM 32.0 °F 26.4 °F 19.4 °F 60% 29.95 in 3.0 mi North 5.8 mph - N/A   Overcast
11:35 AM 32.0 °F 25.6 °F 17.6 °F 55% 29.94 in 3.0 mi NNE 6.9 mph - N/A   Overcast
11:55 AM 32.0 °F 25.6 °F 17.6 °F 55% 29.94 in 3.0 mi North 6.9 mph - N/A   Overcast
12:15 PM 32.0 °F 25.6 °F 17.6 °F 55% 29.94 in 4.0 mi NE 6.9 mph - N/A   Overcast
12:35 PM 32.0 °F 26.4 °F 17.6 °F 55% 29.94 in 5.0 mi NNE 5.8 mph - N/A   Overcast
12:55 PM 32.0 °F 27.5 °F 17.6 °F 55% 29.94 in 5.0 mi NNE 4.6 mph - N/A   Overcast
1:15 PM 32.0 °F 24.2 °F 17.6 °F 55% 29.92 in 5.0 mi ENE 9.2 mph - N/A   Overcast
1:35 PM 32.0 °F 24.2 °F 17.6 °F 55% 29.91 in 8.0 mi NE 9.2 mph - N/A   Overcast
1:55 PM 33.8 °F 28.6 °F 17.6 °F 52% 29.90 in 8.0 mi NE 5.8 mph - N/A   Overcast
2:15 PM 33.8 °F 27.7 °F 28.4 °F 81% 29.90 in 8.0 mi NE 6.9 mph - N/A   Overcast
2:35 PM 33.8 °F 27.7 °F 28.4 °F 81% 29.90 in 8.0 mi NE 6.9 mph - N/A   Overcast
2:55 PM 33.8 °F 27.7 °F 28.4 °F 81% 29.90 in 8.0 mi NE 6.9 mph - N/A   Overcast
3:15 PM 33.8 °F 27.7 °F 30.2 °F 87% 29.90 in 7.0 mi NE 6.9 mph - N/A   Overcast
3:35 PM 33.8 °F 29.6 °F 30.2 °F 87% 29.90 in 7.0 mi NNE 4.6 mph - N/A   Overcast
3:55 PM 33.8 °F 29.6 °F 30.2 °F 87% 29.90 in 7.0 mi NE 4.6 mph - N/A   Overcast
4:15 PM 33.8 °F 28.6 °F 30.2 °F 87% 29.90 in 8.0 mi NE 5.8 mph - N/A   Overcast
4:35 PM 33.8 °F 28.6 °F 30.2 °F 87% 29.90 in 8.0 mi NE 5.8 mph - N/A   Overcast
4:55 PM 33.8 °F 28.6 °F 30.2 °F 87% 29.89 in 6.0 mi NNE 5.8 mph - N/A   Overcast
5:15 PM 33.8 °F 28.6 °F 30.2 °F 87% 29.89 in 7.0 mi NE 5.8 mph - N/A   Overcast
5:35 PM 33.8 °F 27.7 °F 30.2 °F 87% 29.88 in 8.0 mi NE 6.9 mph - N/A   Overcast
5:55 PM 33.8 °F 29.6 °F 30.2 °F 87% 29.89 in 7.0 mi NE 4.6 mph - N/A   Overcast
6:15 PM 33.8 °F 30.8 °F 30.2 °F 87% 29.89 in 7.0 mi NE 3.5 mph - N/A   Overcast
6:35 PM 33.8 °F 30.8 °F 30.2 °F 87% 29.89 in 8.0 mi NNE 3.5 mph - N/A   Overcast
6:55 PM 33.8 °F 30.8 °F 30.2 °F 87% 29.90 in 4.0 mi NNE 3.5 mph - N/A   Overcast
7:15 PM 33.8 °F - 30.2 °F 87% 29.90 in 5.0 mi Calm Calm - N/A   Overcast
7:35 PM 33.8 °F 30.8 °F 30.2 °F 87% 29.90 in 4.0 mi NNE 3.5 mph - N/A   Overcast
7:55 PM 33.8 °F - 30.2 °F 87% 29.89 in 4.0 mi Calm Calm - N/A   Overcast
8:15 PM 33.8 °F - 30.2 °F 87% 29.90 in 4.0 mi Calm Calm - N/A   Overcast
8:35 PM 33.8 °F - 32.0 °F 93% 29.90 in 4.0 mi Calm Calm - N/A   Overcast
8:55 PM 33.8 °F 30.8 °F 30.2 °F 87% 29.90 in 3.0 mi NNE 3.5 mph - N/A   Overcast
9:15 PM 33.8 °F - 30.2 °F 87% 29.90 in 3.0 mi Calm Calm - N/A   Overcast
9:35 PM 33.8 °F - 32.0 °F 93% 29.91 in 3.0 mi Calm Calm - N/A   Overcast
9:55 PM 32.0 °F 28.7 °F 30.2 °F 93% 29.91 in 4.0 mi NNE 3.5 mph - N/A   Overcast
10:15 PM 32.0 °F - 32.0 °F 100% 29.91 in 3.0 mi Calm Calm - N/A   Overcast
10:35 PM 32.0 °F 28.7 °F 30.2 °F 93% 29.90 in 3.0 mi NNE 3.5 mph - N/A   Overcast
10:55 PM 33.8 °F 28.6 °F 30.2 °F 87% 29.91 in 3.0 mi NNW 5.8 mph - N/A   Overcast
11:15 PM 32.0 °F - 30.2 °F 93% 29.91 in 4.0 mi Calm Calm - N/A   Overcast
11:35 PM 32.0 °F 28.7 °F 30.2 °F 93% 29.91 in 3.0 mi North 3.5 mph - N/A   Overcast
11:55 PM 32.0 °F 28.7 °F 30.2 °F 93% 29.91 in 3.0 mi North 3.5 mph - N/A   Overcast